User: anonymous   Login
Location: Bishop�s Knoyle
(51.0728°N, 2.1714°W)
Time: 03:52:59
(UTC+00:00)
Language:

FO-99 - Orbit

View from above orbital plane
View from above orbital plane
View from above satellite
View from above satellite

Ground track
Ground track

The orbit data is extracted from the following two-line orbital elements,

1 43937U 19003F   21332.82433030  .00003656  00000-0  14045-3 0  9990
2 43937  97.1582   9.3387 0023551 145.5115 214.7658 15.26787197159335
Epoch (UTC): 28 November 2021 19:47:02
Eccentricity: 0.0023551
inclination: 97.1582°
perigee height: 469 km
apogee height: 501 km
right ascension of ascending node: 9.3387°
argument of perigee: 145.5115°
revolutions per day: 15.26787197
mean anomaly at epoch: 214.7658°
orbit number at epoch: 15933

The dashed part of the orbit path shows where the satellite is in the earth's shadow,  

DLR